lobby

Flag for Brazil Weather past 2 weeks in Boa Vista, Roraima, Brazil

Now
73 °F

Clear.


Feels Like: 74 °F
Forecast: 76 / 94 °F
Wind: 5 mph from East

Location: Boa Vista Aeropor-To

Current Time: Sep 23, 2014 at 5:08:25 AM

Latest Report: Sep 23, 2014 at 4:00 AM


Visibility: 10 mi

Pressure: 29.86 "Hg

Humidity: 78%

Dew point: 66 °F

Location of Boa VistaLocation

Historic Weather in Boa Vista — Graph

°F

Boa Vista temperature yesterday

Maximum temperature yesterday: 91 °F (at 1:00 PM)
Minimum temperature yesterday: 73 °F (at 6:00 AM)
Average temperature yesterday: 83 °F

Past Weeks' High & Low Weather Summary

 TemperatureHumidityPressure
High95 °F (Sep 9, 11:00 AM)100% (Sep 18, 7:00 AM)30.01 "Hg (Sep 18, 7:00 AM)
Low37 °F (Sep 18, 7:00 AM)36% (Sep 22, 3:00 PM)29.71 "Hg (Sep 11, 5:00 PM)
Average81 °F68%29.86 "Hg
* Reported Sep 8 4:00 AM — Sep 23 4:00 AM, Boa Vista, Weather by CustomWeather, © 2014

Note: Actual official high and low records may vary slightly from our data, if they occured in-between our weather recording intervals... More about our weather records

Advertising

Boa Vista weather history for previous 24 hours

 ConditionsComfort  
Time TempWeatherWind HumidityBarometerVisibility
4:00 AM
Sep 23
73 °FClear.5 mph78%29.86 "Hg10 mi
3:00 AM75 °FClear.5 mph74%29.83 "Hg10 mi
2:00 AM75 °FClear.3 mph74%29.83 "Hg10 mi
1:00 AM77 °FClear.2 mph69%29.86 "Hg10 mi
12:00 AM79 °FClear.6 mph65%29.86 "Hg10 mi
11:00 PM
Sep 22
79 °FClear.5 mph65%29.86 "Hg10 mi
10:00 PM81 °FClear.7 mph62%29.86 "Hg10 mi
9:00 PM84 °FClear.6 mph51%29.83 "Hg10 mi
8:00 PM86 °FClear.3 mph49%29.80 "Hg10 mi
7:00 PM88 °FClear.5 mph46%29.80 "Hg10 mi
6:00 PM90 °FPassing clouds.7 mph41%29.77 "HgN/A
5:00 PM91 °FPassing clouds.6 mph38%29.77 "HgN/A
4:00 PM91 °FScattered clouds.7 mph41%29.77 "HgN/A
3:00 PM91 °FScattered clouds.8 mph36%29.80 "HgN/A
2:00 PM91 °FScattered clouds.10 mph41%29.83 "HgN/A
1:00 PM91 °FScattered clouds.7 mph44%29.86 "HgN/A
12:00 PM88 °FScattered clouds.9 mph52%29.89 "HgN/A
11:00 AM86 °FScattered clouds.13 mph55%29.92 "HgN/A
10:00 AM86 °FPassing clouds.12 mph59%29.95 "HgN/A
9:00 AM82 °FSunny.13 mph66%29.95 "Hg10 mi
8:00 AM79 °FSunny.12 mph74%29.95 "Hg10 mi
7:00 AM75 °FSunny.No wind83%29.92 "Hg10 mi
6:00 AM73 °FSunny.No wind89%29.89 "Hg10 mi
5:00 AM75 °FClear.No wind78%29.89 "Hg10 mi
Weather by CustomWeather, © 2014

See weather overviewHow to use our weather pages